CW5586 Weather Reports


Display with metric or nautical units.
time (UTC)temp
F
wind
direction
speed
MPH
gust
MPH
rain 1hr
in
rain 24hr
in
rain mn
in
humidity
%
barometer
mb
20260901141103 65 228 3.0 9.0 0.00 0.46 0.00 71 1010.5
20260901140603 66 194 9.0 9.0 0.00 0.46 0.00 72 1010.5
20260901131603 66 259 8.0 14.0 0.00 0.46 0.00 69 1010.6
20260901131103 67 194 8.0 8.0 0.00 0.46 0.00 68 1010.5
20260901130115 67 221 10.0 12.0 0.00 0.46 0.00 66 1010.4
20260901123603 67 219 8.0 7.0 0.00 0.46 0.00 72 1010.3
20260901123104 66 13 2.0 9.0 0.00 0.46 0.00 73 1010.3
20260901121603 66 268 5.0 7.0 0.00 0.46 0.00 76 1010.3
20260901120115 65 209 5.0 8.0 0.00 0.46 0.00 77 1010.3
20260901114103 64 300 1.0 8.0 0.00 0.46 0.00 80 1010.4
20260901113603 64 205 3.0 8.0 0.00 0.46 0.00 81 1010.4
20260901111103 64 269 2.0 8.0 0.00 0.46 0.00 80 1010.2
20260901110115 64 245 5.0 10.0 0.00 0.46 0.00 80 1010.2
20260901104603 64 216 6.0 8.0 0.00 0.46 0.00 80 1010.1
20260901104103 64 210 5.0 8.0 0.00 0.46 0.00 78 1010.0
20260901101604 65 0 0.0 3.0 0.00 0.46 0.00 76 1009.8
20260901094103 64 271 3.0 6.0 0.00 0.46 0.00 81 1009.3
20260901093604 63 242 5.0 8.0 0.00 0.46 0.00 85 1009.3
20260901093103 63 254 1.0 8.0 0.00 0.46 0.00 85 1009.2
20260901091603 63 253 1.0 8.0 0.00 0.46 0.00 86 1009.4
20260901090604 63 242 2.0 8.0 0.00 0.46 0.00 86 1009.2
20260901090115 62 247 1.0 3.0 0.00 0.46 0.00 88 1009.2
20260901084603 62 277 1.0 3.0 0.00 0.46 0.00 88 1009.2
20260901083104 61 310 1.0 5.0 0.00 0.46 0.00 92 1008.9
20260901081603 61 240 1.0 3.0 0.00 0.46 0.00 94 1008.9
20260901081103 60 291 1.0 1.0 0.00 0.46 0.00 95 1009.0
20260901074603 60 284 1.0 2.0 0.00 0.46 0.00 96 1008.9
20260901073104 60 261 1.0 2.0 0.00 0.46 0.00 96 1008.9
20260901071603 60 326 1.0 1.0 0.00 0.46 0.00 96 1008.8
20260901064604 59 352 2.0 2.0 0.00 0.46 0.00 96 1008.6
20260901064103 59 321 1.0 2.0 0.00 0.46 0.00 96 1008.6
20260901060115 59 299 0.0 2.0 0.00 0.46 0.00 96 1008.3
20260901054103 58 277 1.0 2.0 0.00 0.46 0.00 96 1008.3
20260901053603 58 275 1.0 3.0 0.00 0.46 0.00 96 1008.3
20260901053103 58 312 1.0 3.0 0.00 0.46 0.00 96 1008.2
20260901051104 58 256 1.0 2.0 0.00 0.46 0.00 96 1008.0
20260901050603 58 0 0.0 0.0 0.00 0.46 0.00 96 1008.0
20260901044603 58 0 0.0 0.0 0.00 0.46 0.00 96 1007.8
20260901041604 58 0 0.0 0.0 0.00 0.46 0.00 96 1007.7
20260901040116 57 0 0.0 0.0 0.00 0.46 0.00 96 1007.7
20260901034604 58 0 0.0 0.0 0.00 0.46 0.00 96 1007.6
20260901034104 58 0 0.0 0.0 0.00 0.46 0.00 96 1007.6
20260901031104 57 0 0.0 0.0 0.00 0.46 0.00 96 1007.4
20260901030604 57 0 0.0 0.0 0.00 0.46 0.00 96 1007.4
20260901024103 57 0 0.0 0.0 0.00 0.46 0.00 96 1007.3
20260901021104 57 0 0.0 0.0 0.00 0.46 0.00 96 1007.1
20260901020604 57 0 0.0 0.0 0.00 0.46 0.00 96 1007.1
20260901013603 57 0 0.0 0.0 0.00 0.46 0.00 96 1007.1
20260901010603 58 0 0.0 0.0 0.00 0.46 0.00 96 1007.0
20260901010115 57 0 0.0 0.0 0.00 0.46 0.00 96 1007.0
20260901004103 57 0 0.0 0.0 0.00 0.46 0.00 96 1006.9
20260901003604 57 0 0.0 0.0 0.00 0.46 0.00 96 1006.8
20260901003105 57 0 0.0 0.0 0.00 0.46 0.00 96 1006.9
20260901001603 58 0 0.0 0.0 0.00 0.46 0.00 96 1006.9
20260901000115 58 0 0.0 0.0 0.00 0.46 0.00 96 1006.9
20260831234104 57 0 0.0 0.0 0.00 0.46 0.00 96 1006.8
20260831231604 57 0 0.0 0.0 0.00 0.46 0.00 96 1006.9
20260831231104 57 0 0.0 1.0 0.00 0.46 0.00 96 1006.8
20260831230115 57 0 0.0 2.0 0.23 0.46 0.00 96 1006.9
20260831224603 57 0 0.0 2.0 0.23 0.46 0.00 96 1006.9
20260831220603 57 0 0.0 0.0 0.23 0.46 0.00 95 1006.8
20260831220115 57 0 0.0 0.0 0.00 0.46 0.23 95 1006.7
20260831214604 57 0 0.0 0.0 0.00 0.44 0.23 95 1006.7
20260831214104 57 0 0.0 0.0 0.00 0.44 0.23 95 1006.7
20260831211603 58 0 0.0 0.0 0.00 0.44 0.23 95 1006.5
20260831211104 58 0 0.0 0.0 0.00 0.44 0.23 95 1006.5
20260831210115 58 0 0.0 0.0 0.00 0.44 0.23 95 1006.6
20260831204103 58 0 0.0 0.0 0.00 0.44 0.23 95 1006.6
20260831201603 58 0 0.0 0.0 0.00 0.44 0.23 95 1006.6
20260831201104 58 0 0.0 2.0 0.00 0.44 0.23 95 1006.6
20260831200603 58 0 0.0 2.0 0.00 0.44 0.23 95 1006.6
20260831194603 58 0 0.0 2.0 0.00 0.44 0.23 95 1006.6
20260831194104 58 0 0.0 2.0 0.00 0.44 0.23 94 1006.6
20260831191604 58 0 0.0 2.0 0.00 0.44 0.23 94 1006.4
20260831190115 58 112 1.0 2.0 0.00 0.44 0.23 94 1006.4
20260831184604 59 141 1.0 2.0 0.00 0.44 0.23 94 1006.4
20260831180604 59 0 0.0 2.0 0.00 0.44 0.23 94 1006.2
20260831174103 60 65 1.0 3.0 0.06 0.44 0.23 94 1006.0
20260831173603 60 77 1.0 2.0 0.09 0.44 0.23 94 1006.0
20260831173103 60 74 0.0 3.0 0.10 0.45 0.23 94 1006.0
20260831171104 60 89 2.0 2.0 0.17 0.46 0.23 94 1005.9
20260831163604 60 200 1.0 2.0 0.11 0.39 0.14 93 1006.0
20260831163103 61 0 0.0 2.0 0.09 0.37 0.13 93 1006.1
20260831161603 61 0 0.0 2.0 0.05 0.34 0.08 93 1006.2
20260831154103 61 0 0.0 2.0 0.00 0.35 0.03 92 1006.2
20260831151605 61 126 1.0 2.0 0.02 0.35 0.03 92 1006.3
20260831151104 60 126 1.0 2.0 0.03 0.36 0.03 92 1006.3
20260831150604 60 123 1.0 3.0 0.03 0.36 0.03 92 1006.3
20260831143603 60 157 1.0 1.0 0.03 0.40 0.03 90 1006.3